Regional Weather Roundup
Issued by NWS

Home | Current Version | Previous Version | Graphics & Text | Print | Product List | Glossary On
Versions: 1 2 3 4 5 6 7 8 9 10 11 12 13 14 15 16 17 18 19 20 21 22 23 24 25 26 27
000
ASUS45 KCYS 091510
RWRWY

WYOMING REGIONAL WEATHER ROUNDUP
NATIONAL WEATHER SERVICE CHEYENNE WY
800 AM MST FRI DEC 09 2016

NOTE:  "FAIR" INDICATES FEW OR NO CLOUDS BELOW 12,000 FEET
WITH NO SIGNIFICANT WEATHER AND/OR OBSTRUCTIONS TO VISIBILITY.

WYZ001-091600-
YELLOWSTONE NATIONAL PARK

CITY           SKY/WX    TMP DP  RH WIND       PRES   REMARKS
LK YELLOWSTONE   N/A     17  16  95 CALM      30.03R
W YELLOWSTONE  NOT AVBL

$$
WYZ002>013-054>058-071-098>099-091600-
NORTHERN WYOMING

CITY           SKY/WX    TMP DP  RH WIND       PRES   REMARKS
JACKSON        FLURRIES  14  12  92 N6        30.07S WCI   5
CODY           FAIR      -5  -9  83 S3        30.14S
GREYBULL       FAIR       6  -2  69 SW5       30.22S WCI  -3
WORLAND        FAIR       0  -4  83 CALM      30.20R
SHERIDAN       CLOUDY     4  -2  76 CALM      30.22F
BUFFALO        CLOUDY     4  -2  76 NW6       30.13S WCI  -7
GILLETTE       FAIR     -10 -13  86 W5        30.19R WCI -22
HULETT         FAIR      -6  -9  84 MISG      30.19S
NEWCASTLE      FAIR       1  -4  78 N3        30.20R

$$
WYZ014>020-022>026-101>103-091600-
CENTRAL WYOMING

CITY           SKY/WX    TMP DP  RH WIND       PRES   REMARKS
BIG PINEY      LGT SNOW   7   5  91 S5        30.14R FOG     WCI  -2
PINEDALE       LGT SNOW  12   9  85 N6        30.13S WCI   3
DUBOIS         PTSUNNY   30  19  64 W21       29.96S WCI  17
LANDER         FAIR       1  -4  79 CALM      30.06F
RIVERTON       FAIR       2  -2  83 SW6       30.09R WCI  -9
CASPER         FAIR     -11 -14  86 W7        30.12S WCI -26
DOUGLAS        FAIR      -1  -7  75 NW3       30.15R

$$
WYZ021-027>030-104>119-091600-
SOUTHERN WYOMING

CITY           SKY/WX    TMP DP  RH WIND       PRES   REMARKS
EVANSTON       FOG       31  29  92 SW15      30.15R VSB 1/4 WCI  20
KEMMERER       LGT SNOW  28  28 100 W18       30.12S WCI  16
FORT BRIDGER   PTSUNNY   32  32 100 W10       30.16S WCI  24
ROCK SPRINGS   FAIR      19  17  92 W10       30.13S FOG     WCI   7
DIXON          CLOUDY    31  19  62 SW7       30.20S WCI  24
RAWLINS        CLOUDY    28  21  75 W26G36    30.07R WCI  13
SARATOGA       FAIR      30  21  69 SW17      30.11R WCI  18
LARAMIE        CLOUDY    30  21  69 W23G32    30.04R WCI  17
CHEYENNE       FAIR      36  23  59 W21       30.00R WCI  25
TORRINGTON     FAIR      10   3  73 N10       30.12R WCI  -4
PINE BLUFFS    FAIR       9   3  78 S8        30.06R WCI  -4

$$




USA.gov is the U.S. government's official web portal to all federal, state and local government web resources and services.